Meteo orario Abengourou

Oggi, 8 Marzo, Lunedi

Tempo Temperatura Precipitazioni Vento Pressione Umidità
00:00 +26°C° 0 mm 1 m/s 741 mm Hg 95%
01:00 +25°C° 0.1 mm 1 m/s 740 mm Hg 95%
02:00 +25°C° 0.1 mm 1 m/s 740 mm Hg 96%
03:00 +25°C° 0.1 mm 1 m/s 739 mm Hg 96%
04:00 +25°C° 0 mm 1 m/s 739 mm Hg 97%
05:00 +25°C° 0 mm 1 m/s 740 mm Hg 97%
06:00 +25°C° 0 mm 1 m/s 740 mm Hg 97%
07:00 +26°C° 0 mm 1 m/s 740 mm Hg 90%
08:00 +28°C° 0 mm 1 m/s 741 mm Hg 83%
09:00 +29°C° 0 mm 2 m/s 741 mm Hg 76%
10:00 +31°C° 0 mm 2 m/s 741 mm Hg 67%
11:00 +34°C° 0 mm 2 m/s 740 mm Hg 59%
12:00 +37°C° 0 mm 2 m/s 740 mm Hg 50%
13:00 +37°C° 0.1 mm 2 m/s 739 mm Hg 47%
14:00 +38°C° 0.1 mm 2 m/s 738 mm Hg 44%
15:00 +39°C° 0.1 mm 1 m/s 737 mm Hg 41%
16:00 +37°C° 0.3 mm 2 m/s 737 mm Hg 49%
17:00 +34°C° 0.3 mm 2 m/s 737 mm Hg 58%
18:00 +31°C° 0.3 mm 2 m/s 737 mm Hg 66%
19:00 +30°C° 1 mm 2 m/s 738 mm Hg 74%
20:00 +28°C° 1 mm 2 m/s 739 mm Hg 82%
21:00 +27°C° 1 mm 2 m/s 740 mm Hg 91%
22:00 +26°C° 0.1 mm 1 m/s 740 mm Hg 92%
23:00 +26°C° 0.1 mm 1 m/s 740 mm Hg 93%

Domani, 9 Marzo, Martedi

Tempo Temperatura Precipitazioni Vento Pressione Umidità
00:00 +26°C° 0.1 mm 1 m/s 740 mm Hg 94%
01:00 +26°C° 0 mm 1 m/s 739 mm Hg 94%
02:00 +25°C° 0 mm 1 m/s 739 mm Hg 95%
03:00 +25°C° 0 mm 1 m/s 739 mm Hg 95%
04:00 +25°C° 0 mm 1 m/s 739 mm Hg 96%
05:00 +25°C° 0 mm 1 m/s 739 mm Hg 96%
06:00 +25°C° 0 mm 1 m/s 739 mm Hg 97%
07:00 +26°C° 0 mm 1 m/s 740 mm Hg 89%
08:00 +28°C° 0 mm 1 m/s 740 mm Hg 81%
09:00 +29°C° 0 mm 2 m/s 741 mm Hg 72%
10:00 +31°C° 0 mm 2 m/s 740 mm Hg 64%
11:00 +34°C° 0 mm 2 m/s 740 mm Hg 56%
12:00 +36°C° 0 mm 2 m/s 740 mm Hg 47%
13:00 +37°C° 0.1 mm 2 m/s 739 mm Hg 47%
14:00 +37°C° 0.1 mm 2 m/s 738 mm Hg 47%
15:00 +36°C° 0.1 mm 1 m/s 737 mm Hg 46%
16:00 +34°C° 0.8 mm 2 m/s 737 mm Hg 57%
17:00 +31°C° 0.8 mm 2 m/s 737 mm Hg 68%
18:00 +29°C° 0.8 mm 2 m/s 737 mm Hg 78%
19:00 +28°C° 0.3 mm 2 m/s 738 mm Hg 83%
20:00 +27°C° 0.3 mm 1 m/s 739 mm Hg 87%
21:00 +26°C° 0.3 mm 1 m/s 739 mm Hg 91%
22:00 +26°C° 0 mm 1 m/s 739 mm Hg 92%
23:00 +26°C° 0 mm 1 m/s 740 mm Hg 93%

Dopodomani, 10 Marzo, Mercoledi

Tempo Temperatura Precipitazioni Vento Pressione Umidità
00:00 +25°C° 0 mm 1 m/s 740 mm Hg 94%
01:00 +25°C° 0 mm 1 m/s 740 mm Hg 95%
02:00 +25°C° 0 mm 1 m/s 739 mm Hg 96%
03:00 +25°C° 0 mm 1 m/s 739 mm Hg 97%
04:00 +25°C° 0 mm 1 m/s 739 mm Hg 96%
05:00 +25°C° 0 mm 1 m/s 739 mm Hg 96%
06:00 +25°C° 0 mm 1 m/s 739 mm Hg 96%
07:00 +26°C° 0 mm 1 m/s 740 mm Hg 90%
08:00 +28°C° 0 mm 1 m/s 740 mm Hg 83%
09:00 +29°C° 0 mm 1 m/s 741 mm Hg 77%
10:00 +31°C° 0 mm 2 m/s 740 mm Hg 68%
11:00 +34°C° 0 mm 2 m/s 740 mm Hg 59%
12:00 +36°C° 0 mm 2 m/s 740 mm Hg 49%
13:00 +37°C° 0 mm 2 m/s 739 mm Hg 48%
14:00 +36°C° 0 mm 1 m/s 738 mm Hg 46%
15:00 +36°C° 0 mm 1 m/s 737 mm Hg 45%
16:00 +36°C° 0.1 mm 2 m/s 737 mm Hg 51%
17:00 +34°C° 0.1 mm 2 m/s 737 mm Hg 57%
18:00 +32°C° 0.1 mm 2 m/s 737 mm Hg 63%
19:00 +30°C° 0.6 mm 2 m/s 738 mm Hg 71%
20:00 +28°C° 0.6 mm 2 m/s 739 mm Hg 79%
21:00 +27°C° 0.6 mm 1 m/s 739 mm Hg 87%
22:00 +26°C° 0.3 mm 1 m/s 739 mm Hg 89%
23:00 +26°C° 0.3 mm 1 m/s 739 mm Hg 91%

11 Marzo, Giovedi

Tempo Temperatura Precipitazioni Vento Pressione Umidità
00:00 +25°C° 0.3 mm 1 m/s 739 mm Hg 93%
01:00 +25°C° 0.4 mm 1 m/s 739 mm Hg 94%
02:00 +25°C° 0.4 mm 1 m/s 739 mm Hg 94%
03:00 +25°C° 0.4 mm 1 m/s 739 mm Hg 95%
04:00 +25°C° 0.1 mm 1 m/s 739 mm Hg 96%
05:00 +25°C° 0.1 mm 1 m/s 739 mm Hg 97%
06:00 +24°C° 0.1 mm 1 m/s 739 mm Hg 98%
07:00 +26°C° 0 mm 1 m/s 739 mm Hg 92%
08:00 +27°C° 0 mm 1 m/s 740 mm Hg 87%
09:00 +28°C° 0 mm 1 m/s 741 mm Hg 81%
10:00 +30°C° 0 mm 2 m/s 740 mm Hg 71%
11:00 +34°C° 0 mm 2 m/s 740 mm Hg 60%
12:00 +36°C° 0 mm 2 m/s 740 mm Hg 50%
13:00 +36°C° 0.5 mm 2 m/s 739 mm Hg 52%
14:00 +35°C° 0.5 mm 2 m/s 738 mm Hg 53%
15:00 +34°C° 0.5 mm 1 m/s 737 mm Hg 55%
16:00 +32°C° 1.6 mm 1 m/s 738 mm Hg 65%
17:00 +30°C° 1.6 mm 1 m/s 738 mm Hg 75%
18:00 +29°C° 1.6 mm 1 m/s 738 mm Hg 85%
19:00 +28°C° 0.2 mm 1 m/s 738 mm Hg 88%
20:00 +27°C° 0.2 mm 1 m/s 739 mm Hg 90%
21:00 +27°C° 0.2 mm 1 m/s 740 mm Hg 92%
22:00 +26°C° 0.6 mm 1 m/s 740 mm Hg 92%
23:00 +26°C° 0.6 mm 2 m/s 740 mm Hg 92%

12 Marzo, Venerdi

Tempo Temperatura Precipitazioni Vento Pressione Umidità
00:00 +25°C° 0.6 mm 2 m/s 740 mm Hg 93%
01:00 +25°C° 0 mm 2 m/s 739 mm Hg 93%
02:00 +25°C° 0 mm 1 m/s 739 mm Hg 93%
03:00 +25°C° 0 mm 1 m/s 738 mm Hg 93%
04:00 +25°C° 0 mm 1 m/s 738 mm Hg 94%
05:00 +25°C° 0 mm 1 m/s 738 mm Hg 94%
06:00 +23°C° 0 mm 0 m/s 739 mm Hg 95%
07:00 +26°C° 0 mm 1 m/s 739 mm Hg 92%
08:00 +26°C° 0 mm 1 m/s 740 mm Hg 90%
09:00 +27°C° 0 mm 1 m/s 741 mm Hg 88%
10:00 +28°C° 0 mm 1 m/s 740 mm Hg 79%
11:00 +30°C° 0 mm 1 m/s 740 mm Hg 71%
12:00 +32°C° 0 mm 2 m/s 740 mm Hg 63%
13:00 +32°C° 0.4 mm 1 m/s 739 mm Hg 61%
14:00 +33°C° 0.4 mm 1 m/s 738 mm Hg 60%
15:00 +34°C° 0.4 mm 1 m/s 737 mm Hg 58%
16:00 +32°C° 1.4 mm 1 m/s 738 mm Hg 67%
17:00 +30°C° 1.4 mm 1 m/s 738 mm Hg 77%
18:00 +28°C° 1.4 mm 1 m/s 738 mm Hg 86%
19:00 +28°C° 1.8 mm 1 m/s 739 mm Hg 88%
20:00 +27°C° 1.8 mm 1 m/s 739 mm Hg 90%
21:00 +26°C° 1.8 mm 1 m/s 740 mm Hg 92%
22:00 +26°C° 0.1 mm 1 m/s 740 mm Hg 93%
23:00 +26°C° 0.1 mm 1 m/s 740 mm Hg 93%

13 Marzo, Sabato

Tempo Temperatura Precipitazioni Vento Pressione Umidità
00:00 +25°C° 0.1 mm 1 m/s 740 mm Hg 94%
01:00 +25°C° 0 mm 1 m/s 740 mm Hg 94%
02:00 +25°C° 0 mm 1 m/s 739 mm Hg 95%
03:00 +25°C° 0 mm 1 m/s 739 mm Hg 95%
04:00 +25°C° 0 mm 1 m/s 739 mm Hg 96%
05:00 +25°C° 0 mm 1 m/s 739 mm Hg 96%
06:00 +25°C° 0 mm 1 m/s 739 mm Hg 96%
07:00 +25°C° 0 mm 1 m/s 740 mm Hg 94%
08:00 +26°C° 0 mm 1 m/s 740 mm Hg 91%
09:00 +27°C° 0 mm 1 m/s 741 mm Hg 88%
10:00 +29°C° 0 mm 1 m/s 741 mm Hg 78%
11:00 +31°C° 0 mm 1 m/s 741 mm Hg 68%
12:00 +34°C° 0 mm 2 m/s 741 mm Hg 57%
13:00 +34°C° 0.3 mm 2 m/s 740 mm Hg 58%
14:00 +33°C° 0.3 mm 1 m/s 739 mm Hg 59%
15:00 +33°C° 0.3 mm 1 m/s 738 mm Hg 59%
16:00 +31°C° 2.1 mm 1 m/s 738 mm Hg 68%
17:00 +30°C° 2.1 mm 1 m/s 739 mm Hg 77%
18:00 +28°C° 2.1 mm 1 m/s 739 mm Hg 86%
19:00 +27°C° 2.1 mm 1 m/s 739 mm Hg 89%
20:00 +26°C° 2.1 mm 1 m/s 740 mm Hg 92%
21:00 +26°C° 2.1 mm 1 m/s 741 mm Hg 94%
22:00 +26°C° 0 mm 1 m/s 741 mm Hg 95%
23:00 +26°C° 0 mm 1 m/s 741 mm Hg 95%
Mostrare altro

Abbiamo bisogno del tuo consenso

Meteoprog e i nostri fornitori di servizi possono memorizzare e accedere a dati personali come cookie, identificatori di dispositivi o altre tecnologie simili sul tuo dispositivo e possono elaborare tali dati per personalizzare i contenuti e gli annunci, nonché fornire funzionalità dei social media e analizzarne il traffico.

  • Archiviare e/o accedere alle informazioni sul tuo dispositivo

    Cookie, identificatori di dispositivi o altre informazioni possono essere memorizzati o resi accessibili sul tuo dispositivo per le finalità sopra indicate.

  • Annunci e contenuti personalizzati, misurazione di annunci e contenuti, approfondimenti sul pubblico e sviluppo di prodotti

    Gli annunci e i contenuti possono essere personalizzati in base a un profilo. È possibile aggiungere più dati per personalizzare meglio annunci e contenuti. È possibile misurare il rendimento degli annunci e dei contenuti. È possibile ricavare informazioni sul pubblico che ha visto gli annunci e i contenuti. Tali dati possono essere utilizzati per sviluppare o migliorare l'esperienza, i sistemi e il software dell'utente.

Cliccando su “Accetto”, acconsenti all'uso di cookie, identificatori di dispositivo, web beacon o altre tecnologie simili. Puoi modificare le impostazioni nel browser del tuo dispositivo.

Per determinati scopi, è possibile fare affidamento su interessi legali, piuttosto che sul consenso. Puoi approfondire questo argomento consultando la nostra Informativa sulla privacy e sui cookie.